Location: Sweet Grass
(48.9965°N, 111.9649°W)
Time: 18:36:33
(UTC+00:00)

DX 1 - Pass Details

Date: 10 April 2023
Orbit: 615 x 625 km, 98.4° (Epoch: 04 June)

Event Time Altitude Azimuth Distance (km) Brightness Sun altitude
Rises 06:17:09 0° 11° (N) 2,900 ? -31.0°
Reaches altitude 10° 06:19:22 10° 8° (N) 1,991 ? -31.1°
Enters shadow 06:21:45 32° 357° (N) 1,079 ? -31.2°
